Regional Weather Roundup
Issued by NWS Albany, NY

Current Version | Previous Version | Text Only | Print | Product List | Glossary On
Versions: 1 2 3 4 5 6 7 8 9 10 11 12 13 14 15 16 17 18 19 20 21 22 23 24 25 26 27 28 29 30 31 32 33 34 35 36 37 38 39 40 41 42 43 44 45 46 47 48 49 50
000
ASUS41 KALY 271010
RWRALY

NEW YORK STATE HOURLY WEATHER ROUNDUP
NATIONAL WEATHER SERVICE ALBANY NY
600 AM EDT WED MAY 27 2020

NOTE: "FAIR" INDICATES FEW OR NO CLOUDS BELOW 12,000 FEET WITH NO
SIGNIFICANT WEATHER AND/OR NO OBSTRUCTIONS TO VISIBILITY.

NYZ032-033-038>043-046>054-057>066-NYZ062>081-082-084-271100-
EAST


CITY           SKY/WX    TMP DP  RH WIND       PRES   REMARKS
ALBANY         FAIR      68  59  73 S8        30.18R
GLENS FALLS    FAIR      65  61  87 SW3       30.17R
POUGHKEEPSIE   FAIR      60  58  92 CALM      30.20R
NEWBURGH       CLEAR     61  61 100 CALM      30.22R
MONTGOMERY     FAIR      57  57 100 CALM      30.21R FOG
WHITE PLAINS   FOG       58  57  97 CALM      30.22S VSB<1/4
ISLIP          FOG       58  58 100 CALM      30.23R VSB 1/4
NEW YORK CITY  FOG       60  57  89 SE5       30.23R VSB 1/2
CENTRAL PARK   CLOUDY    60  58  92 MISG      30.25R
$$

NYZ005>009-017-018-044>046-055-056-271100-
CENTRAL


CITY           SKY/WX    TMP DP  RH WIND       PRES   REMARKS
FULTON         FAIR      68  63  84 CALM      30.11R
SYRACUSE       FAIR      69  63  81 E5        30.12R
ROME           FAIR      66  62  87 SE6       30.15R
ELMIRA         FAIR      61  61 100 CALM      30.16R FOG
BINGHAMTON     FAIR      64  60  87 MISG      30.19R
MONTICELLO     FAIR      61  59  94 CALM      30.24R FOG
$$

NYZ026>034-041>043-087-271100-
NORTH


CITY           SKY/WX    TMP DP  RH WIND       PRES   REMARKS
WATERTOWN      FAIR      62  60  93 E3        30.09R FOG
FORT DRUM      NOT AVBL
OGDENSBURG     FAIR      68  64  88 S5        30.07R
MASSENA        FAIR      60  58  92 CALM      30.10R
SARANAC LAKE   FAIR      52  49  89 CALM      30.17S
PLATTSBURGH    FAIR      60  59  96 CALM      30.11R
$$

NYZ001>004-010>016-019>021-085-271100-
WEST


CITY           SKY/WX    TMP DP  RH WIND       PRES   REMARKS
NIAGARA FALLS  FAIR      69  61  75 CALM      30.09R
BUFFALO        FAIR      69  61  75 S7        30.10R
DUNKIRK        FAIR      74  59  59 S10       30.09S
JAMESTOWN      FAIR      65  59  81 S7        30.17R
WELLSVILLE     FAIR      64  59  83 VRB3      30.21R
ROCHESTER      FAIR      68  60  75 SW7       30.10R
PENN YAN       FAIR      65  61  87 CALM      30.14R
$$

             KEY
       WCI = WIND CHILL INDEX
       VSB = VISIBILITY
       HX  = HEAT INDEX
$$



USA.gov is the U.S. government's official web portal to all federal, state and local government web resources and services.